Time,TemperatureF,DewpointF,PressureIn,WindDirection,WindDirectionDegrees,WindSpeedMPH,WindSpeedGustMPH,Humidity,HourlyPrecipIn,Conditions,Clouds,dailyrainin,SoftwareType,DateUTC
2013-02-12 00:03:00,42.2,40.9,30.38,SSE,167,0.0,0.0,95,0.00,OVC,OVC,0.00,WeatherDisplay:10.37,2013-02-12 08:03:00,
2013-02-12 00:08:00,42.2,40.9,30.38,SSE,167,0.0,0.0,95,0.01,RA,RA,0.01,WeatherDisplay:10.37,2013-02-12 08:08:00,
2013-02-12 00:18:00,42.2,41.1,30.38,SSE,167,0.0,0.0,96,0.00,OVC,OVC,0.01,WeatherDisplay:10.37,2013-02-12 08:18:00,
2013-02-12 00:23:00,42.2,41.1,30.38,SSE,167,0.0,0.0,96,0.00,OVC,OVC,0.01,WeatherDisplay:10.37,2013-02-12 08:23:00,
2013-02-12 00:28:00,42.2,41.2,30.38,SSE,167,0.0,0.0,96,0.00,OVC,OVC,0.01,WeatherDisplay:10.37,2013-02-12 08:28:00,
2013-02-12 00:33:00,42.2,41.2,30.38,SSE,167,0.0,0.0,96,0.01,RA,RA,0.02,WeatherDisplay:10.37,2013-02-12 08:33:00,
2013-02-12 00:38:00,42.2,41.1,30.37,SSE,167,0.0,0.0,96,0.00,RA,RA,0.02,WeatherDisplay:10.37,2013-02-12 08:38:00,
2013-02-12 00:43:00,42.2,41.1,30.37,SSE,167,0.0,0.0,96,0.00,OVC,OVC,0.02,WeatherDisplay:10.37,2013-02-12 08:43:00,
2013-02-12 00:48:00,42.2,41.1,30.37,SSE,167,0.0,0.0,96,0.00,OVC,OVC,0.02,WeatherDisplay:10.37,2013-02-12 08:48:00,
2013-02-12 00:53:00,42.2,41.1,30.37,SSE,167,0.0,0.0,96,0.00,OVC,OVC,0.02,WeatherDisplay:10.37,2013-02-12 08:53:00,
2013-02-12 00:58:00,42.2,41.2,30.37,SSE,167,0.0,0.0,96,0.00,OVC,OVC,0.02,WeatherDisplay:10.37,2013-02-12 08:58:00,
2013-02-12 01:03:00,42.3,41.2,30.37,SSE,167,0.0,0.0,96,0.00,OVC,OVC,0.02,WeatherDisplay:10.37,2013-02-12 09:03:00,
2013-02-12 01:08:00,42.3,41.2,30.37,SSE,167,0.0,0.0,96,0.00,OVC,OVC,0.02,WeatherDisplay:10.37,2013-02-12 09:08:00,
2013-02-12 01:13:00,42.4,41.3,30.37,SSE,167,0.0,0.0,96,0.00,OVC,OVC,0.02,WeatherDisplay:10.37,2013-02-12 09:13:00,
2013-02-12 01:18:00,42.4,41.3,30.37,SSE,165,0.0,0.0,96,0.00,OVC,OVC,0.02,WeatherDisplay:10.37,2013-02-12 09:18:00,
2013-02-12 01:23:00,42.5,41.4,30.37,South,185,0.0,1.0,96,0.00,OVC,OVC,0.02,WeatherDisplay:10.37,2013-02-12 09:23:00,
2013-02-12 01:28:00,42.6,41.8,30.37,SW,235,0.0,1.0,97,0.00,OVC,OVC,0.02,WeatherDisplay:10.37,2013-02-12 09:28:00,
2013-02-12 01:33:00,42.7,41.9,30.37,WSW,246,0.0,1.0,97,0.00,OVC,OVC,0.02,WeatherDisplay:10.37,2013-02-12 09:33:00,
2013-02-12 01:43:00,42.8,42.0,30.38,WSW,254,0.0,0.0,97,0.00,OVC,OVC,0.02,WeatherDisplay:10.37,2013-02-12 09:43:00,
2013-02-12 01:48:00,42.8,42.0,30.37,WSW,254,0.0,0.0,97,0.00,OVC,OVC,0.02,WeatherDisplay:10.37,2013-02-12 09:48:00,
2013-02-12 01:53:00,42.9,42.1,30.38,WSW,252,0.0,1.0,97,0.00,OVC,OVC,0.02,WeatherDisplay:10.37,2013-02-12 09:53:00,
2013-02-12 01:58:00,42.9,42.1,30.38,SSW,209,0.0,2.0,97,0.00,OVC,OVC,0.02,WeatherDisplay:10.37,2013-02-12 09:58:00,
2013-02-12 02:03:00,43.0,42.2,30.38,SW,222,0.0,2.0,97,0.00,OVC,OVC,0.02,WeatherDisplay:10.37,2013-02-12 10:03:00,
2013-02-12 02:08:00,43.0,42.2,30.38,West,261,0.0,1.0,97,0.00,OVC,OVC,0.02,WeatherDisplay:10.37,2013-02-12 10:08:00,
2013-02-12 02:13:00,43.1,42.3,30.38,WSW,242,0.0,2.0,97,0.00,OVC,OVC,0.02,WeatherDisplay:10.37,2013-02-12 10:13:00,
2013-02-12 02:18:00,43.1,42.3,30.38,SW,236,0.0,1.0,97,0.00,OVC,OVC,0.02,WeatherDisplay:10.37,2013-02-12 10:18:00,
2013-02-12 02:23:00,43.1,42.3,30.38,SW,225,0.0,1.0,97,0.00,OVC,OVC,0.02,WeatherDisplay:10.37,2013-02-12 10:23:00,
2013-02-12 02:28:00,43.1,42.3,30.38,WSW,239,0.0,3.0,97,0.00,OVC,OVC,0.02,WeatherDisplay:10.37,2013-02-12 10:28:00,
2013-02-12 02:33:00,43.1,42.3,30.38,WSW,251,0.0,1.0,97,0.00,OVC,OVC,0.02,WeatherDisplay:10.37,2013-02-12 10:33:00,
2013-02-12 02:38:00,43.1,42.3,30.38,WSW,250,0.0,0.0,97,0.00,OVC,OVC,0.02,WeatherDisplay:10.37,2013-02-12 10:38:00,
2013-02-12 02:43:00,43.1,42.3,30.38,WSW,250,0.0,0.0,97,0.00,OVC,OVC,0.02,WeatherDisplay:10.37,2013-02-12 10:43:00,
2013-02-12 02:48:00,43.1,42.3,30.39,West,259,0.0,1.0,97,0.01,RA,RA,0.03,WeatherDisplay:10.37,2013-02-12 10:48:00,
2013-02-12 02:53:00,43.1,42.3,30.39,West,262,0.0,1.0,97,0.00,RA,RA,0.03,WeatherDisplay:10.37,2013-02-12 10:53:00,
2013-02-12 02:58:00,43.1,42.3,30.39,WSW,257,0.0,0.0,97,0.00,OVC,OVC,0.03,WeatherDisplay:10.37,2013-02-12 10:58:00,
2013-02-12 03:03:00,43.1,42.3,30.39,WSW,257,0.0,0.0,97,0.00,OVC,OVC,0.03,WeatherDisplay:10.37,2013-02-12 11:03:00,
2013-02-12 03:08:00,43.1,42.3,30.38,WSW,257,0.0,0.0,97,0.00,OVC,OVC,0.03,WeatherDisplay:10.37,2013-02-12 11:08:00,
2013-02-12 03:13:00,43.1,42.3,30.39,WSW,257,0.0,0.0,97,0.00,OVC,OVC,0.03,WeatherDisplay:10.37,2013-02-12 11:13:00,
2013-02-12 03:18:00,43.1,42.3,30.38,WSW,257,0.0,0.0,97,0.00,OVC,OVC,0.03,WeatherDisplay:10.37,2013-02-12 11:18:00,
2013-02-12 03:23:00,43.1,42.3,30.39,WSW,257,0.0,0.0,97,0.01,RA,RA,0.04,WeatherDisplay:10.37,2013-02-12 11:23:00,
2013-02-12 03:28:00,43.1,42.3,30.39,WSW,257,0.0,0.0,97,0.00,RA,RA,0.04,WeatherDisplay:10.37,2013-02-12 11:28:00,
2013-02-12 03:33:00,43.1,42.3,30.39,WSW,257,0.0,0.0,97,0.00,OVC,OVC,0.04,WeatherDisplay:10.37,2013-02-12 11:33:00,
2013-02-12 03:38:00,43.1,42.3,30.39,WSW,257,0.0,0.0,97,0.00,OVC,OVC,0.04,WeatherDisplay:10.37,2013-02-12 11:38:00,
2013-02-12 03:43:00,43.1,42.3,30.39,WSW,257,0.0,0.0,97,0.00,OVC,OVC,0.04,WeatherDisplay:10.37,2013-02-12 11:43:00,
2013-02-12 03:48:00,43.1,42.3,30.39,WSW,255,0.0,0.0,97,0.00,OVC,OVC,0.04,WeatherDisplay:10.37,2013-02-12 11:48:00,
2013-02-12 03:53:00,43.1,42.3,30.39,WSW,253,0.0,0.0,97,0.00,OVC,OVC,0.04,WeatherDisplay:10.37,2013-02-12 11:53:00,
2013-02-12 03:58:00,43.1,42.3,30.39,WSW,253,0.0,0.0,97,0.00,OVC,OVC,0.04,WeatherDisplay:10.37,2013-02-12 11:58:00,
2013-02-12 04:03:00,43.1,42.3,30.39,WSW,252,0.0,0.0,97,0.00,OVC,OVC,0.04,WeatherDisplay:10.37,2013-02-12 12:03:00,
2013-02-12 04:08:00,43.1,42.3,30.39,WSW,252,0.0,2.0,97,0.00,OVC,OVC,0.04,WeatherDisplay:10.37,2013-02-12 12:08:00,
2013-02-12 04:13:00,43.2,42.4,30.39,WSW,253,0.0,1.0,97,0.00,OVC,OVC,0.04,WeatherDisplay:10.37,2013-02-12 12:13:00,
2013-02-12 04:18:00,43.1,42.3,30.39,WSW,256,0.0,0.0,97,0.01,RA,RA,0.05,WeatherDisplay:10.37,2013-02-12 12:18:00,
2013-02-12 04:23:00,43.1,42.3,30.39,WSW,255,0.0,0.0,97,0.00,RA,RA,0.05,WeatherDisplay:10.37,2013-02-12 12:23:00,
2013-02-12 04:28:00,43.1,42.3,30.39,WSW,252,0.0,0.0,97,0.00,OVC,OVC,0.05,WeatherDisplay:10.37,2013-02-12 12:28:00,
2013-02-12 04:33:00,43.1,42.3,30.39,WSW,253,0.0,0.0,97,0.00,OVC,OVC,0.05,WeatherDisplay:10.37,2013-02-12 12:33:00,
2013-02-12 04:38:00,43.1,42.3,30.39,WSW,250,0.0,0.0,97,0.00,OVC,OVC,0.05,WeatherDisplay:10.37,2013-02-12 12:38:00,
2013-02-12 04:43:00,43.1,42.3,30.39,WSW,238,0.0,0.0,97,0.00,OVC,OVC,0.05,WeatherDisplay:10.37,2013-02-12 12:43:00,
2013-02-12 04:48:00,43.1,42.3,30.39,South,182,0.0,0.0,97,0.00,OVC,OVC,0.05,WeatherDisplay:10.37,2013-02-12 12:48:00,
2013-02-12 04:53:00,43.1,42.3,30.39,SSE,165,0.0,0.0,97,0.00,OVC,OVC,0.05,WeatherDisplay:10.37,2013-02-12 12:53:00,
2013-02-12 04:58:00,43.1,42.3,30.39,SSW,208,0.0,0.0,97,0.00,OVC,OVC,0.05,WeatherDisplay:10.37,2013-02-12 12:58:00,
2013-02-12 05:03:00,43.1,42.3,30.39,SSW,211,0.0,0.0,97,0.00,OVC,OVC,0.05,WeatherDisplay:10.37,2013-02-12 13:03:00,
2013-02-12 05:08:00,43.1,42.3,30.39,SSW,202,0.0,0.0,97,0.00,OVC,OVC,0.05,WeatherDisplay:10.37,2013-02-12 13:08:00,
2013-02-12 05:13:00,43.1,42.3,30.39,SSW,203,0.0,0.0,97,0.00,OVC,OVC,0.05,WeatherDisplay:10.37,2013-02-12 13:13:00,
2013-02-12 05:18:00,43.1,42.3,30.39,SW,216,0.0,0.0,97,0.00,OVC,OVC,0.05,WeatherDisplay:10.37,2013-02-12 13:18:00,
2013-02-12 05:23:00,43.1,42.3,30.38,WSW,244,0.0,0.0,97,0.00,OVC,OVC,0.05,WeatherDisplay:10.37,2013-02-12 13:23:00,
2013-02-12 05:28:00,43.1,42.3,30.38,WSW,257,0.0,2.0,97,0.00,OVC,OVC,0.05,WeatherDisplay:10.37,2013-02-12 13:28:00,
2013-02-12 05:33:00,43.1,42.3,30.38,WSW,249,0.0,1.0,97,0.00,OVC,OVC,0.05,WeatherDisplay:10.37,2013-02-12 13:33:00,
2013-02-12 05:38:00,43.1,42.3,30.39,SW,218,0.0,0.0,97,0.01,RA,RA,0.06,WeatherDisplay:10.37,2013-02-12 13:38:00,
2013-02-12 05:43:00,43.1,42.3,30.39,SSW,203,0.0,0.0,97,0.00,RA,RA,0.06,WeatherDisplay:10.37,2013-02-12 13:43:00,
2013-02-12 05:48:00,43.1,42.3,30.39,South,188,0.0,1.0,97,0.00,OVC,OVC,0.06,WeatherDisplay:10.37,2013-02-12 13:48:00,
2013-02-12 05:53:00,43.1,42.3,30.39,ENE,70,0.0,1.0,97,0.00,OVC,OVC,0.06,WeatherDisplay:10.37,2013-02-12 13:53:00,
2013-02-12 05:58:00,43.1,42.3,30.39,East,80,0.0,0.0,97,0.00,OVC,OVC,0.06,WeatherDisplay:10.37,2013-02-12 13:58:00,
2013-02-12 06:03:00,43.1,42.3,30.39,East,92,0.0,0.0,97,0.00,OVC,OVC,0.06,WeatherDisplay:10.37,2013-02-12 14:03:00,
2013-02-12 06:08:00,43.1,42.3,30.40,ESE,107,0.0,2.0,97,0.00,OVC,OVC,0.06,WeatherDisplay:10.37,2013-02-12 14:08:00,
2013-02-12 06:13:00,43.1,42.3,30.40,West,263,0.0,1.0,97,0.00,OVC,OVC,0.06,WeatherDisplay:10.37,2013-02-12 14:13:00,
2013-02-12 06:18:00,43.1,42.4,30.40,WSW,257,0.0,0.0,97,0.00,OVC,OVC,0.06,WeatherDisplay:10.37,2013-02-12 14:18:00,
2013-02-12 06:23:00,43.1,42.4,30.40,WSW,258,0.0,0.0,97,0.00,OVC,OVC,0.06,WeatherDisplay:10.37,2013-02-12 14:23:00,
2013-02-12 06:28:00,43.2,42.4,30.40,West,259,0.0,0.0,97,0.00,OVC,OVC,0.06,WeatherDisplay:10.37,2013-02-12 14:28:00,
2013-02-12 06:33:00,43.2,42.4,30.40,NNW,336,0.0,0.0,97,0.00,OVC,OVC,0.06,WeatherDisplay:10.37,2013-02-12 14:33:00,
2013-02-12 06:38:00,43.2,42.4,30.40,NE,35,0.0,1.0,97,0.00,OVC,OVC,0.06,WeatherDisplay:10.37,2013-02-12 14:38:00,
2013-02-12 06:43:00,43.2,42.4,30.40,East,96,0.0,3.0,97,0.00,OVC,OVC,0.06,WeatherDisplay:10.37,2013-02-12 14:43:00,
2013-02-12 06:48:00,43.2,42.4,30.40,SE,131,0.0,1.0,97,0.00,OVC,OVC,0.06,WeatherDisplay:10.37,2013-02-12 14:48:00,
2013-02-12 06:53:00,43.2,42.4,30.40,SSW,207,0.0,3.0,97,0.00,OVC,OVC,0.06,WeatherDisplay:10.37,2013-02-12 14:53:00,
2013-02-12 06:58:00,43.2,42.4,30.40,SSW,211,0.0,1.0,97,0.00,OVC,OVC,0.06,WeatherDisplay:10.37,2013-02-12 14:58:00,
2013-02-12 07:03:00,43.2,42.4,30.40,SSE,165,0.0,1.0,97,0.01,RA,RA,0.00,WeatherDisplay:10.37,2013-02-12 15:03:00,
2013-02-12 07:13:00,43.2,42.4,30.40,NW,304,0.0,1.0,97,0.00,OVC,OVC,0.00,WeatherDisplay:10.37,2013-02-12 15:13:00,
2013-02-12 07:18:00,43.2,42.4,30.40,WSW,246,0.0,2.0,97,0.00,OVC,OVC,0.00,WeatherDisplay:10.37,2013-02-12 15:18:00,
2013-02-12 07:23:00,43.2,42.4,30.40,West,268,0.0,2.0,97,0.00,OVC,OVC,0.00,WeatherDisplay:10.37,2013-02-12 15:23:00,
2013-02-12 07:28:00,43.2,42.4,30.40,West,278,0.0,1.0,97,0.00,OVC,OVC,0.00,WeatherDisplay:10.37,2013-02-12 15:28:00,
2013-02-12 07:33:00,43.2,42.4,30.40,West,263,0.0,1.0,97,0.00,OVC,OVC,0.00,WeatherDisplay:10.37,2013-02-12 15:33:00,
2013-02-12 07:38:00,43.2,42.4,30.41,WSW,248,0.0,1.0,97,0.00,OVC,OVC,0.00,WeatherDisplay:10.37,2013-02-12 15:38:00,
2013-02-12 07:43:00,43.2,42.4,30.41,SE,141,0.0,1.0,97,0.00,OVC,OVC,0.00,WeatherDisplay:10.37,2013-02-12 15:43:00,
2013-02-12 07:48:00,43.2,42.4,30.41,ESE,103,0.0,1.0,97,0.00,OVC,OVC,0.00,WeatherDisplay:10.37,2013-02-12 15:48:00,
2013-02-12 07:53:00,43.2,42.4,30.41,West,278,0.0,1.0,97,0.00,OVC,OVC,0.00,WeatherDisplay:10.37,2013-02-12 15:53:00,
2013-02-12 07:58:00,43.2,42.4,30.41,WSW,254,0.0,3.0,97,0.00,OVC,OVC,0.00,WeatherDisplay:10.37,2013-02-12 15:58:00,
2013-02-12 08:08:00,43.3,42.5,30.42,WSW,246,0.0,2.0,97,0.00,OVC,OVC,0.00,WeatherDisplay:10.37,2013-02-12 16:08:00,
2013-02-12 08:13:00,43.3,42.5,30.42,West,259,0.0,1.0,97,0.01,RA,RA,0.01,WeatherDisplay:10.37,2013-02-12 16:13:00,
2013-02-12 08:18:00,43.4,42.6,30.42,West,267,0.0,0.0,97,0.00,RA,RA,0.01,WeatherDisplay:10.37,2013-02-12 16:18:00,
2013-02-12 08:23:00,43.4,42.6,30.42,WSW,257,0.0,1.0,97,0.00,OVC,OVC,0.01,WeatherDisplay:10.37,2013-02-12 16:23:00,
2013-02-12 08:28:00,43.5,42.7,30.42,WSW,248,0.0,1.0,97,0.00,OVC,OVC,0.01,WeatherDisplay:10.37,2013-02-12 16:28:00,
2013-02-12 08:33:00,43.6,42.8,30.42,WSW,249,1.0,3.0,97,0.00,OVC,OVC,0.01,WeatherDisplay:10.37,2013-02-12 16:33:00,
2013-02-12 08:38:00,43.6,42.8,30.43,WSW,255,0.0,1.0,97,0.00,OVC,OVC,0.01,WeatherDisplay:10.37,2013-02-12 16:38:00,
2013-02-12 08:48:00,43.7,42.9,30.42,SW,232,0.0,0.0,97,0.00,OVC,OVC,0.01,WeatherDisplay:10.37,2013-02-12 16:48:00,
2013-02-12 08:53:00,43.9,43.1,30.42,SW,226,0.0,0.0,97,0.00,OVC,OVC,0.01,WeatherDisplay:10.37,2013-02-12 16:53:00,
2013-02-12 08:58:00,44.0,43.2,30.42,SW,222,0.0,1.0,97,0.00,OVC,OVC,0.01,WeatherDisplay:10.37,2013-02-12 16:58:00,
2013-02-12 09:03:00,44.0,43.2,30.42,WSW,241,0.0,2.0,97,0.00,OVC,OVC,0.01,WeatherDisplay:10.37,2013-02-12 17:03:00,
2013-02-12 09:08:00,44.1,43.3,30.42,WSW,250,0.0,2.0,97,0.00,OVC,OVC,0.01,WeatherDisplay:10.37,2013-02-12 17:08:00,
2013-02-12 09:13:00,44.1,43.3,30.43,WSW,245,0.0,1.0,97,0.00,OVC,OVC,0.01,WeatherDisplay:10.37,2013-02-12 17:13:00,
2013-02-12 09:18:00,44.1,43.3,30.43,WSW,238,0.0,1.0,97,0.01,RA,RA,0.02,WeatherDisplay:10.37,2013-02-12 17:18:00,
2013-02-12 09:23:00,44.2,43.4,30.43,SW,235,0.0,1.0,97,0.00,RA,RA,0.02,WeatherDisplay:10.37,2013-02-12 17:23:00,
2013-02-12 09:28:00,44.3,43.5,30.43,SW,225,0.0,1.0,97,0.00,OVC,OVC,0.02,WeatherDisplay:10.37,2013-02-12 17:28:00,
2013-02-12 09:33:00,44.3,43.5,30.43,West,267,0.0,1.0,97,0.00,OVC,OVC,0.02,WeatherDisplay:10.37,2013-02-12 17:33:00,
2013-02-12 09:43:00,44.3,43.5,30.43,SW,224,0.0,1.0,97,0.00,OVC,OVC,0.02,WeatherDisplay:10.37,2013-02-12 17:43:00,
2013-02-12 09:48:00,44.3,43.5,30.43,West,270,0.0,1.0,97,0.00,OVC,OVC,0.02,WeatherDisplay:10.37,2013-02-12 17:48:00,
2013-02-12 09:53:00,44.3,43.5,30.43,ENE,60,0.0,1.0,97,0.00,OVC,OVC,0.02,WeatherDisplay:10.37,2013-02-12 17:53:00,
2013-02-12 09:58:00,44.3,43.5,30.43,ESE,119,0.0,1.0,97,0.01,RA,RA,0.03,WeatherDisplay:10.37,2013-02-12 17:58:00,
2013-02-12 10:03:00,44.3,43.5,30.42,SSE,164,1.0,2.0,97,0.00,RA,RA,0.03,WeatherDisplay:10.37,2013-02-12 18:03:00,
2013-02-12 10:08:00,44.3,43.5,30.42,SSW,194,0.0,2.0,97,0.00,OVC,OVC,0.03,WeatherDisplay:10.37,2013-02-12 18:08:00,
2013-02-12 10:13:00,44.3,43.5,30.42,SW,218,0.0,2.0,97,0.00,OVC,OVC,0.03,WeatherDisplay:10.37,2013-02-12 18:13:00,
2013-02-12 10:18:00,44.4,43.6,30.42,SSW,196,0.0,1.0,97,0.00,OVC,OVC,0.03,WeatherDisplay:10.37,2013-02-12 18:18:00,
2013-02-12 10:23:00,44.5,43.7,30.42,South,190,0.0,1.0,97,0.00,OVC,OVC,0.03,WeatherDisplay:10.37,2013-02-12 18:23:00,
2013-02-12 10:28:00,44.6,43.8,30.42,SSW,213,0.0,1.0,97,0.00,OVC,OVC,0.03,WeatherDisplay:10.37,2013-02-12 18:28:00,
2013-02-12 10:33:00,44.7,43.9,30.42,SW,234,0.0,1.0,97,0.00,OVC,OVC,0.03,WeatherDisplay:10.37,2013-02-12 18:33:00,
2013-02-12 10:38:00,44.7,43.9,30.42,West,266,0.0,1.0,97,0.00,OVC,OVC,0.03,WeatherDisplay:10.37,2013-02-12 18:38:00,
2013-02-12 10:43:00,44.7,43.9,30.42,WSW,247,0.0,1.0,97,0.00,OVC,OVC,0.03,WeatherDisplay:10.37,2013-02-12 18:43:00,
2013-02-12 10:48:00,44.7,43.9,30.42,SW,227,0.0,2.0,97,0.00,OVC,OVC,0.03,WeatherDisplay:10.37,2013-02-12 18:48:00,
2013-02-12 10:53:00,44.7,43.9,30.42,SW,228,0.0,2.0,97,0.00,OVC,OVC,0.03,WeatherDisplay:10.37,2013-02-12 18:53:00,
2013-02-12 10:58:00,44.7,43.9,30.43,WSW,250,0.0,3.0,97,0.00,OVC,OVC,0.03,WeatherDisplay:10.37,2013-02-12 18:58:00,
2013-02-12 11:08:00,44.8,44.0,30.42,WSW,253,0.0,1.0,97,0.00,OVC,OVC,0.03,WeatherDisplay:10.37,2013-02-12 19:08:00,
2013-02-12 11:13:00,44.9,44.1,30.43,WSW,255,0.0,1.0,97,0.00,OVC,OVC,0.03,WeatherDisplay:10.37,2013-02-12 19:13:00,
2013-02-12 11:18:00,44.9,44.1,30.43,WNW,284,0.0,1.0,97,0.00,OVC,OVC,0.03,WeatherDisplay:10.37,2013-02-12 19:18:00,
2013-02-12 11:23:00,44.9,44.1,30.43,NNW,340,0.0,0.0,97,0.00,OVC,OVC,0.03,WeatherDisplay:10.37,2013-02-12 19:23:00,
2013-02-12 11:28:00,44.9,44.1,30.43,North,353,0.0,1.0,97,0.00,OVC,OVC,0.03,WeatherDisplay:10.37,2013-02-12 19:28:00,
2013-02-12 11:33:00,44.9,44.1,30.43,WNW,303,0.0,2.0,97,0.00,OVC,OVC,0.03,WeatherDisplay:10.37,2013-02-12 19:33:00,
2013-02-12 11:38:00,45.0,44.2,30.43,WSW,251,0.0,1.0,97,0.00,OVC,OVC,0.03,WeatherDisplay:10.37,2013-02-12 19:38:00,
2013-02-12 11:43:00,45.0,44.2,30.42,West,279,0.0,0.0,97,0.00,OVC,OVC,0.03,WeatherDisplay:10.37,2013-02-12 19:43:00,
2013-02-12 11:53:00,45.1,44.3,30.42,NNE,31,0.0,2.0,97,0.00,OVC,OVC,0.03,WeatherDisplay:10.37,2013-02-12 19:53:00,
2013-02-12 11:58:00,45.1,44.3,30.42,ESE,103,0.0,0.0,97,0.00,OVC,OVC,0.03,WeatherDisplay:10.37,2013-02-12 19:58:00,
2013-02-12 12:03:00,45.1,44.3,30.41,South,180,1.0,2.0,97,0.00,OVC,OVC,0.03,WeatherDisplay:10.37,2013-02-12 20:03:00,
2013-02-12 12:08:00,45.2,44.4,30.41,North,350,0.0,0.0,97,0.00,OVC,OVC,0.03,WeatherDisplay:10.37,2013-02-12 20:08:00,
2013-02-12 12:13:00,45.2,44.4,30.41,ESE,105,0.0,1.0,97,0.00,OVC,OVC,0.03,WeatherDisplay:10.37,2013-02-12 20:13:00,
2013-02-12 12:23:00,45.3,44.5,30.41,WSW,243,1.0,2.0,97,0.00,OVC,OVC,0.03,WeatherDisplay:10.37,2013-02-12 20:23:00,
2013-02-12 12:28:00,45.4,44.6,30.41,WSW,238,1.0,2.0,97,0.00,OVC,OVC,0.03,WeatherDisplay:10.37,2013-02-12 20:28:00,
2013-02-12 12:38:00,45.5,44.7,30.41,WSW,250,0.0,1.0,97,0.00,OVC,OVC,0.03,WeatherDisplay:10.37,2013-02-12 20:38:00,
2013-02-12 12:43:00,45.5,44.7,30.41,WSW,255,0.0,1.0,97,0.00,OVC,OVC,0.03,WeatherDisplay:10.37,2013-02-12 20:43:00,
2013-02-12 12:48:00,45.6,44.5,30.40,WSW,253,0.0,2.0,96,0.00,OVC,OVC,0.03,WeatherDisplay:10.37,2013-02-12 20:48:00,
2013-02-12 12:53:00,45.7,44.9,30.40,WSW,249,0.0,0.0,97,0.00,OVC,OVC,0.03,WeatherDisplay:10.37,2013-02-12 20:53:00,
2013-02-12 12:58:00,45.7,44.9,30.40,West,259,0.0,0.0,97,0.00,OVC,OVC,0.03,WeatherDisplay:10.37,2013-02-12 20:58:00,
2013-02-12 13:03:00,45.8,45.0,30.40,WSW,253,0.0,1.0,97,0.00,OVC,OVC,0.03,WeatherDisplay:10.37,2013-02-12 21:03:00,
2013-02-12 13:08:00,45.9,44.8,30.39,WSW,246,1.0,2.0,96,0.00,OVC,OVC,0.03,WeatherDisplay:10.37,2013-02-12 21:08:00,
2013-02-12 13:13:00,45.9,44.8,30.39,SW,226,1.0,3.0,96,0.00,OVC,OVC,0.03,WeatherDisplay:10.37,2013-02-12 21:13:00,
2013-02-12 13:18:00,46.0,44.9,30.39,SW,225,1.0,3.0,96,0.00,OVC,OVC,0.03,WeatherDisplay:10.37,2013-02-12 21:18:00,
2013-02-12 13:23:00,46.0,44.9,30.39,WSW,249,0.0,2.0,96,0.00,OVC,OVC,0.03,WeatherDisplay:10.37,2013-02-12 21:23:00,
2013-02-12 13:28:00,46.1,45.0,30.39,West,259,1.0,2.0,96,0.00,OVC,OVC,0.03,WeatherDisplay:10.37,2013-02-12 21:28:00,
2013-02-12 13:38:00,46.2,45.1,30.39,WSW,258,1.0,3.0,96,0.00,OVC,OVC,0.03,WeatherDisplay:10.37,2013-02-12 21:38:00,
2013-02-12 13:43:00,46.3,44.9,30.39,WSW,237,1.0,4.0,95,0.00,OVC,OVC,0.03,WeatherDisplay:10.37,2013-02-12 21:43:00,
2013-02-12 13:48:00,46.3,45.0,30.38,SW,233,1.0,3.0,95,0.00,OVC,OVC,0.03,WeatherDisplay:10.37,2013-02-12 21:48:00,
2013-02-12 13:53:00,46.4,45.0,30.38,West,268,0.0,3.0,95,0.00,OVC,OVC,0.03,WeatherDisplay:10.37,2013-02-12 21:53:00,
2013-02-12 13:58:00,46.5,45.1,30.38,West,274,2.0,7.0,95,0.00,OVC,OVC,0.03,WeatherDisplay:10.37,2013-02-12 21:58:00,
2013-02-12 14:03:00,46.6,45.2,30.38,WSW,255,2.0,5.0,95,0.00,OVC,OVC,0.03,WeatherDisplay:10.37,2013-02-12 22:03:00,
2013-02-12 14:08:00,46.7,45.3,30.38,WSW,245,0.0,2.0,95,0.00,OVC,OVC,0.03,WeatherDisplay:10.37,2013-02-12 22:08:00,
2013-02-12 14:13:00,46.8,45.4,30.38,WSW,248,1.0,4.0,95,0.00,OVC,OVC,0.03,WeatherDisplay:10.37,2013-02-12 22:13:00,
2013-02-12 14:23:00,46.9,45.3,30.38,WSW,248,1.0,3.0,94,0.00,OVC,OVC,0.03,WeatherDisplay:10.37,2013-02-12 22:23:00,
2013-02-12 14:28:00,47.0,45.4,30.38,SW,229,0.0,3.0,94,0.00,OVC,OVC,0.03,WeatherDisplay:10.37,2013-02-12 22:28:00,
2013-02-12 14:33:00,47.1,45.4,30.38,SSW,198,1.0,2.0,94,0.00,OVC,OVC,0.03,WeatherDisplay:10.37,2013-02-12 22:33:00,
2013-02-12 14:38:00,47.1,45.5,30.37,SW,226,0.0,3.0,94,0.00,OVC,OVC,0.03,WeatherDisplay:10.37,2013-02-12 22:38:00,
2013-02-12 14:43:00,47.1,45.5,30.37,WSW,251,1.0,3.0,94,0.00,OVC,OVC,0.03,WeatherDisplay:10.37,2013-02-12 22:43:00,
2013-02-12 14:48:00,47.3,45.4,30.36,WNW,285,1.0,5.0,93,0.00,OVC,OVC,0.03,WeatherDisplay:10.37,2013-02-12 22:48:00,
2013-02-12 14:53:00,47.5,45.6,30.36,West,268,3.0,6.0,93,0.00,OVC,OVC,0.03,WeatherDisplay:10.37,2013-02-12 22:53:00,
2013-02-12 14:58:00,47.8,45.6,30.36,West,269,2.0,8.0,92,0.00,OVC,OVC,0.03,WeatherDisplay:10.37,2013-02-12 22:58:00,
2013-02-12 15:03:00,48.1,45.8,30.35,West,280,2.0,5.0,92,0.00,OVC,OVC,0.03,WeatherDisplay:10.37,2013-02-12 23:03:00,
2013-02-12 15:08:00,48.2,45.7,30.35,West,268,2.0,10.0,91,0.00,OVC,OVC,0.03,WeatherDisplay:10.37,2013-02-12 23:08:00,
2013-02-12 15:18:00,48.3,45.8,30.35,WSW,247,3.0,8.0,91,0.00,OVC,OVC,0.03,WeatherDisplay:10.37,2013-02-12 23:18:00,
2013-02-12 15:23:00,48.3,45.8,30.36,WSW,254,1.0,4.0,91,0.00,OVC,OVC,0.03,WeatherDisplay:10.37,2013-02-12 23:23:00,
2013-02-12 15:28:00,48.3,45.8,30.37,WSW,239,1.0,3.0,91,0.00,OVC,OVC,0.03,WeatherDisplay:10.37,2013-02-12 23:28:00,
2013-02-12 15:33:00,48.3,45.5,30.37,SW,215,1.0,4.0,90,0.00,OVC,OVC,0.03,WeatherDisplay:10.37,2013-02-12 23:33:00,
2013-02-12 15:38:00,48.4,45.6,30.37,SW,228,2.0,5.0,90,0.00,OVC,OVC,0.03,WeatherDisplay:10.37,2013-02-12 23:38:00,
2013-02-12 15:43:00,48.5,45.7,30.37,WSW,249,1.0,6.0,90,0.00,OVC,OVC,0.03,WeatherDisplay:10.37,2013-02-12 23:43:00,
2013-02-12 15:48:00,48.6,45.5,30.36,WSW,250,1.0,6.0,89,0.00,OVC,OVC,0.03,WeatherDisplay:10.37,2013-02-12 23:48:00,
2013-02-12 15:53:00,48.7,45.6,30.36,WSW,254,2.0,7.0,89,0.00,OVC,OVC,0.03,WeatherDisplay:10.37,2013-02-12 23:53:00,
2013-02-12 15:58:00,48.7,45.6,30.37,WSW,255,1.0,4.0,89,0.00,OVC,OVC,0.03,WeatherDisplay:10.37,2013-02-12 23:58:00,
2013-02-12 16:03:00,48.7,45.6,30.37,WSW,258,2.0,5.0,89,0.00,OVC,OVC,0.03,WeatherDisplay:10.37,2013-02-13 00:03:00,
2013-02-12 16:08:00,48.7,45.6,30.36,WSW,249,2.0,7.0,89,0.00,OVC,OVC,0.03,WeatherDisplay:10.37,2013-02-13 00:08:00,
2013-02-12 16:18:00,48.6,45.2,30.36,SW,235,2.0,5.0,88,0.00,OVC,OVC,0.03,WeatherDisplay:10.37,2013-02-13 00:18:00,
2013-02-12 16:23:00,48.6,45.2,30.36,SW,235,0.0,6.0,88,0.00,OVC,OVC,0.03,WeatherDisplay:10.37,2013-02-13 00:23:00,
2013-02-12 16:28:00,48.5,45.1,30.36,West,263,1.0,6.0,88,0.00,OVC,OVC,0.03,WeatherDisplay:10.37,2013-02-13 00:28:00,
2013-02-12 16:33:00,48.5,45.1,30.35,WNW,296,1.0,3.0,88,0.00,OVC,OVC,0.03,WeatherDisplay:10.37,2013-02-13 00:33:00,
2013-02-12 16:38:00,48.5,45.1,30.35,NNW,344,0.0,4.0,88,0.00,OVC,OVC,0.03,WeatherDisplay:10.37,2013-02-13 00:38:00,
2013-02-12 16:43:00,48.5,45.1,30.35,WNW,293,1.0,8.0,88,0.00,OVC,OVC,0.03,WeatherDisplay:10.37,2013-02-13 00:43:00,
2013-02-12 16:48:00,48.5,45.1,30.35,WSW,257,2.0,5.0,88,0.00,OVC,OVC,0.03,WeatherDisplay:10.37,2013-02-13 00:48:00,
2013-02-12 16:53:00,48.6,45.2,30.36,SW,228,1.0,8.0,88,0.00,OVC,OVC,0.03,WeatherDisplay:10.37,2013-02-13 00:53:00,
2013-02-12 16:58:00,48.6,44.9,30.36,WSW,239,1.0,5.0,87,0.00,OVC,OVC,0.03,WeatherDisplay:10.37,2013-02-13 00:58:00,
2013-02-12 17:03:00,48.7,44.7,30.36,West,266,1.0,7.0,86,0.00,OVC,OVC,0.03,WeatherDisplay:10.37,2013-02-13 01:03:00,
2013-02-12 17:08:00,48.7,45.0,30.36,West,266,0.0,3.0,87,0.00,OVC,OVC,0.03,WeatherDisplay:10.37,2013-02-13 01:08:00,
2013-02-12 17:13:00,48.6,44.9,30.36,WSW,248,0.0,5.0,87,0.00,OVC,OVC,0.03,WeatherDisplay:10.37,2013-02-13 01:13:00,
2013-02-12 17:18:00,48.6,44.6,30.36,West,260,1.0,9.0,86,0.00,OVC,OVC,0.03,WeatherDisplay:10.37,2013-02-13 01:18:00,
2013-02-12 17:23:00,48.5,44.5,30.36,WSW,249,3.0,8.0,86,0.00,OVC,OVC,0.03,WeatherDisplay:10.37,2013-02-13 01:23:00,
2013-02-12 17:28:00,48.4,44.7,30.36,SW,225,1.0,10.0,87,0.00,OVC,OVC,0.03,WeatherDisplay:10.37,2013-02-13 01:28:00,
2013-02-12 17:33:00,48.3,44.6,30.36,WSW,237,2.0,7.0,87,0.00,OVC,OVC,0.03,WeatherDisplay:10.37,2013-02-13 01:33:00,
2013-02-12 17:38:00,48.1,44.7,30.36,WSW,241,1.0,7.0,88,0.00,OVC,OVC,0.03,WeatherDisplay:10.37,2013-02-13 01:38:00,
2013-02-12 17:43:00,48.0,44.9,30.36,SSW,209,0.0,2.0,89,0.00,OVC,OVC,0.03,WeatherDisplay:10.37,2013-02-13 01:43:00,
2013-02-12 17:48:00,47.7,44.9,30.36,SW,215,1.0,10.0,90,0.00,OVC,OVC,0.03,WeatherDisplay:10.37,2013-02-13 01:48:00,
2013-02-12 17:53:00,47.5,45.0,30.36,SW,227,1.0,4.0,91,0.00,OVC,OVC,0.03,WeatherDisplay:10.37,2013-02-13 01:53:00,
2013-02-12 17:58:00,47.3,45.1,30.37,WSW,249,2.0,5.0,92,0.00,OVC,OVC,0.03,WeatherDisplay:10.37,2013-02-13 01:58:00,
2013-02-12 18:03:00,47.2,45.0,30.36,WSW,253,3.0,6.0,92,0.00,OVC,OVC,0.03,WeatherDisplay:10.37,2013-02-13 02:03:00,
2013-02-12 18:08:00,47.1,45.2,30.36,WSW,250,2.0,6.0,93,0.00,OVC,OVC,0.03,WeatherDisplay:10.37,2013-02-13 02:08:00,
2013-02-12 18:13:00,47.1,45.2,30.36,SW,227,3.0,7.0,93,0.00,OVC,OVC,0.03,WeatherDisplay:10.37,2013-02-13 02:13:00,
2013-02-12 18:18:00,47.1,45.2,30.36,SSW,193,1.0,5.0,93,0.00,OVC,OVC,0.03,WeatherDisplay:10.37,2013-02-13 02:18:00,
2013-02-12 18:23:00,47.0,45.1,30.36,SW,219,2.0,6.0,93,0.00,OVC,OVC,0.03,WeatherDisplay:10.37,2013-02-13 02:23:00,
2013-02-12 18:28:00,47.0,45.4,30.36,WSW,255,2.0,7.0,94,0.00,OVC,OVC,0.03,WeatherDisplay:10.37,2013-02-13 02:28:00,
2013-02-12 18:33:00,47.0,45.4,30.35,WSW,253,1.0,5.0,94,0.00,OVC,OVC,0.03,WeatherDisplay:10.37,2013-02-13 02:33:00,
2013-02-12 18:38:00,46.9,45.3,30.36,West,268,2.0,7.0,94,0.00,OVC,OVC,0.03,WeatherDisplay:10.37,2013-02-13 02:38:00,
2013-02-12 18:43:00,46.8,45.2,30.36,WSW,256,2.0,5.0,94,0.00,OVC,OVC,0.03,WeatherDisplay:10.37,2013-02-13 02:43:00,
2013-02-12 18:48:00,46.8,45.2,30.35,SSW,198,2.0,7.0,94,0.00,OVC,OVC,0.03,WeatherDisplay:10.37,2013-02-13 02:48:00,
2013-02-12 18:58:00,46.8,45.2,30.35,WSW,237,2.0,6.0,94,0.00,OVC,OVC,0.03,WeatherDisplay:10.37,2013-02-13 02:58:00,
2013-02-12 19:03:00,46.8,45.2,30.35,West,264,2.0,5.0,94,0.00,OVC,OVC,0.03,WeatherDisplay:10.37,2013-02-13 03:03:00,
2013-02-12 19:08:00,46.7,45.1,30.35,West,277,2.0,4.0,94,0.00,OVC,OVC,0.03,WeatherDisplay:10.37,2013-02-13 03:08:00,
2013-02-12 19:13:00,46.7,45.1,30.35,West,259,3.0,7.0,94,0.00,OVC,OVC,0.03,WeatherDisplay:10.37,2013-02-13 03:13:00,
2013-02-12 19:18:00,46.8,45.2,30.35,WSW,241,1.0,6.0,94,0.00,OVC,OVC,0.03,WeatherDisplay:10.37,2013-02-13 03:18:00,
2013-02-12 19:23:00,46.8,45.1,30.35,WSW,250,1.0,8.0,94,0.00,OVC,OVC,0.03,WeatherDisplay:10.37,2013-02-13 03:23:00,
2013-02-12 19:28:00,46.8,45.1,30.35,WSW,251,0.0,3.0,94,0.00,OVC,OVC,0.03,WeatherDisplay:10.37,2013-02-13 03:28:00,
2013-02-12 19:33:00,46.8,45.1,30.35,West,262,2.0,5.0,94,0.00,OVC,OVC,0.03,WeatherDisplay:10.37,2013-02-13 03:33:00,
2013-02-12 19:38:00,46.7,45.1,30.35,West,264,1.0,3.0,94,0.00,OVC,OVC,0.03,WeatherDisplay:10.37,2013-02-13 03:38:00,
2013-02-12 19:43:00,46.7,45.3,30.35,West,261,1.0,3.0,95,0.00,OVC,OVC,0.03,WeatherDisplay:10.37,2013-02-13 03:43:00,
2013-02-12 19:48:00,46.7,45.3,30.35,West,275,2.0,5.0,95,0.00,OVC,OVC,0.03,WeatherDisplay:10.37,2013-02-13 03:48:00,
2013-02-12 19:53:00,46.6,45.0,30.35,West,272,1.0,3.0,94,0.00,OVC,OVC,0.03,WeatherDisplay:10.37,2013-02-13 03:53:00,
2013-02-12 19:58:00,46.6,45.0,30.35,WSW,257,1.0,4.0,94,0.00,OVC,OVC,0.03,WeatherDisplay:10.37,2013-02-13 03:58:00,
2013-02-12 20:03:00,46.6,45.0,30.35,West,260,2.0,4.0,94,0.00,OVC,OVC,0.03,WeatherDisplay:10.37,2013-02-13 04:03:00,
2013-02-12 20:08:00,46.6,45.0,30.35,West,275,1.0,5.0,94,0.00,OVC,OVC,0.03,WeatherDisplay:10.37,2013-02-13 04:08:00,
2013-02-12 20:13:00,46.6,45.0,30.34,WNW,289,2.0,4.0,94,0.00,OVC,OVC,0.03,WeatherDisplay:10.37,2013-02-13 04:13:00,
2013-02-12 20:18:00,46.7,45.1,30.34,WSW,256,2.0,8.0,94,0.00,OVC,OVC,0.03,WeatherDisplay:10.37,2013-02-13 04:18:00,
2013-02-12 20:23:00,46.8,44.8,30.35,WNW,292,1.0,7.0,93,0.00,OVC,OVC,0.03,WeatherDisplay:10.37,2013-02-13 04:23:00,
2013-02-12 20:28:00,46.8,44.9,30.35,WNW,296,1.0,4.0,93,0.00,OVC,OVC,0.03,WeatherDisplay:10.37,2013-02-13 04:28:00,
2013-02-12 20:33:00,46.8,44.9,30.35,SW,226,1.0,5.0,93,0.00,OVC,OVC,0.03,WeatherDisplay:10.37,2013-02-13 04:33:00,
2013-02-12 20:38:00,46.8,44.9,30.35,WSW,254,1.0,5.0,93,0.00,OVC,OVC,0.03,WeatherDisplay:10.37,2013-02-13 04:38:00,
2013-02-12 20:43:00,46.8,44.9,30.35,West,263,2.0,5.0,93,0.00,OVC,OVC,0.03,WeatherDisplay:10.37,2013-02-13 04:43:00,
2013-02-12 20:48:00,46.8,44.9,30.35,West,260,1.0,5.0,93,0.00,OVC,OVC,0.03,WeatherDisplay:10.37,2013-02-13 04:48:00,
2013-02-12 20:53:00,46.8,44.9,30.35,West,273,1.0,4.0,93,0.00,OVC,OVC,0.03,WeatherDisplay:10.37,2013-02-13 04:53:00,
2013-02-12 20:58:00,46.8,44.9,30.34,West,265,1.0,3.0,93,0.00,OVC,OVC,0.03,WeatherDisplay:10.37,2013-02-13 04:58:00,
2013-02-12 21:03:00,46.8,44.6,30.34,WNW,296,1.0,5.0,92,0.00,OVC,OVC,0.03,WeatherDisplay:10.37,2013-02-13 05:03:00,
2013-02-12 21:08:00,46.8,44.6,30.34,West,271,0.0,6.0,92,0.00,OVC,OVC,0.03,WeatherDisplay:10.37,2013-02-13 05:08:00,
2013-02-12 21:13:00,46.8,44.6,30.34,WSW,250,0.0,0.0,92,0.00,OVC,OVC,0.03,WeatherDisplay:10.37,2013-02-13 05:13:00,
2013-02-12 21:18:00,46.8,44.6,30.34,West,268,2.0,4.0,92,0.00,OVC,OVC,0.03,WeatherDisplay:10.37,2013-02-13 05:18:00,
2013-02-12 21:23:00,46.8,44.6,30.34,West,259,1.0,5.0,92,0.00,OVC,OVC,0.03,WeatherDisplay:10.37,2013-02-13 05:23:00,
2013-02-12 21:28:00,46.8,44.6,30.34,WSW,240,0.0,6.0,92,0.00,OVC,OVC,0.03,WeatherDisplay:10.37,2013-02-13 05:28:00,
2013-02-12 21:33:00,46.7,44.5,30.34,WSW,240,2.0,3.0,92,0.00,OVC,OVC,0.03,WeatherDisplay:10.37,2013-02-13 05:33:00,
2013-02-12 21:38:00,46.7,44.5,30.34,WSW,258,2.0,6.0,92,0.00,OVC,OVC,0.03,WeatherDisplay:10.37,2013-02-13 05:38:00,
2013-02-12 21:43:00,46.7,44.5,30.34,WNW,284,2.0,6.0,92,0.00,OVC,OVC,0.03,WeatherDisplay:10.37,2013-02-13 05:43:00,
2013-02-12 21:48:00,46.7,44.5,30.34,West,265,2.0,5.0,92,0.00,OVC,OVC,0.03,WeatherDisplay:10.37,2013-02-13 05:48:00,
2013-02-12 21:53:00,46.7,44.5,30.34,WSW,246,1.0,5.0,92,0.00,OVC,OVC,0.03,WeatherDisplay:10.37,2013-02-13 05:53:00,
2013-02-12 21:58:00,46.6,44.4,30.34,NW,311,1.0,4.0,92,0.00,OVC,OVC,0.03,WeatherDisplay:10.37,2013-02-13 05:58:00,
2013-02-12 22:03:00,46.6,44.4,30.34,West,269,2.0,6.0,92,0.00,OVC,OVC,0.03,WeatherDisplay:10.37,2013-02-13 06:03:00,
2013-02-12 22:08:00,46.6,44.4,30.34,West,261,1.0,6.0,92,0.00,OVC,OVC,0.03,WeatherDisplay:10.37,2013-02-13 06:08:00,
2013-02-12 22:13:00,46.6,44.4,30.34,WSW,256,2.0,6.0,92,0.00,OVC,OVC,0.03,WeatherDisplay:10.37,2013-02-13 06:13:00,
2013-02-12 22:18:00,46.5,44.3,30.34,WSW,255,2.0,6.0,92,0.00,OVC,OVC,0.03,WeatherDisplay:10.37,2013-02-13 06:18:00,
2013-02-12 22:23:00,46.5,44.3,30.34,WSW,255,3.0,7.0,92,0.00,OVC,OVC,0.03,WeatherDisplay:10.37,2013-02-13 06:23:00,
2013-02-12 22:28:00,46.5,44.3,30.34,West,264,1.0,5.0,92,0.00,OVC,OVC,0.03,WeatherDisplay:10.37,2013-02-13 06:28:00,
2013-02-12 22:33:00,46.6,44.4,30.34,West,267,3.0,7.0,92,0.00,OVC,OVC,0.03,WeatherDisplay:10.37,2013-02-13 06:33:00,
2013-02-12 22:38:00,46.6,44.4,30.34,WNW,284,1.0,3.0,92,0.00,OVC,OVC,0.03,WeatherDisplay:10.37,2013-02-13 06:38:00,
2013-02-12 22:43:00,46.5,44.3,30.34,WSW,257,2.0,5.0,92,0.00,OVC,OVC,0.03,WeatherDisplay:10.37,2013-02-13 06:43:00,
2013-02-12 22:48:00,46.5,44.0,30.34,SW,234,2.0,5.0,91,0.00,OVC,OVC,0.03,WeatherDisplay:10.37,2013-02-13 06:48:00,
2013-02-12 22:53:00,46.5,44.3,30.34,SW,229,2.0,4.0,92,0.00,OVC,OVC,0.03,WeatherDisplay:10.37,2013-02-13 06:53:00,
2013-02-12 22:58:00,46.5,44.3,30.34,West,267,2.0,6.0,92,0.00,OVC,OVC,0.03,WeatherDisplay:10.37,2013-02-13 06:58:00,
2013-02-12 23:03:00,46.5,44.3,30.34,West,262,3.0,8.0,92,0.00,OVC,OVC,0.03,WeatherDisplay:10.37,2013-02-13 07:03:00,
2013-02-12 23:08:00,46.5,44.3,30.34,WSW,238,2.0,6.0,92,0.00,OVC,OVC,0.03,WeatherDisplay:10.37,2013-02-13 07:08:00,
2013-02-12 23:13:00,46.5,44.3,30.34,WSW,240,2.0,7.0,92,0.00,OVC,OVC,0.03,WeatherDisplay:10.37,2013-02-13 07:13:00,
2013-02-12 23:18:00,46.5,44.0,30.34,West,265,1.0,9.0,91,0.00,OVC,OVC,0.03,WeatherDisplay:10.37,2013-02-13 07:18:00,
2013-02-12 23:23:00,46.5,44.0,30.34,West,271,2.0,6.0,91,0.00,OVC,OVC,0.03,WeatherDisplay:10.37,2013-02-13 07:23:00,
2013-02-12 23:28:00,46.5,44.0,30.33,West,280,3.0,6.0,91,0.00,OVC,OVC,0.03,WeatherDisplay:10.37,2013-02-13 07:28:00,
2013-02-12 23:33:00,46.6,44.1,30.34,West,273,2.0,9.0,91,0.00,OVC,OVC,0.03,WeatherDisplay:10.37,2013-02-13 07:33:00,
2013-02-12 23:38:00,46.6,44.1,30.34,WNW,282,2.0,5.0,91,0.00,OVC,OVC,0.03,WeatherDisplay:10.37,2013-02-13 07:38:00,
2013-02-12 23:43:00,46.6,44.1,30.34,WSW,244,3.0,7.0,91,0.00,OVC,OVC,0.03,WeatherDisplay:10.37,2013-02-13 07:43:00,
2013-02-12 23:48:00,46.5,44.0,30.34,West,266,2.0,9.0,91,0.00,OVC,OVC,0.03,WeatherDisplay:10.37,2013-02-13 07:48:00,
2013-02-12 23:53:00,46.5,44.0,30.33,West,273,3.0,6.0,91,0.00,OVC,OVC,0.03,WeatherDisplay:10.37,2013-02-13 07:53:00,
2013-02-12 23:58:00,46.5,44.0,30.33,WSW,254,3.0,9.0,91,0.00,OVC,OVC,0.03,WeatherDisplay:10.37,2013-02-13 07:58:00,